Weather History for KENW - November, 2012

Change the Weather History Date:

Monday, November 26, 2012

  Actual Average Record
Temperature  
Mean Temperature 26 °F -  
Max Temperature 33 °F 44 °F 68 °F (1990)
Min Temperature 19 °F 28 °F 2 °F (1977)
Degree Days  
Heating Degree Days 39    
Moisture  
Dew Point 15 °F    
Average Humidity 63    
Maximum Humidity 77    
Minimum Humidity 54    
Precipitation  
Precipitation 0.00 in - - ()
Sea Level Pressure  
Sea Level Pressure 30.27 in    
Wind  
Wind Speed 7 mph (NW)    
Max Wind Speed 9 mph    
Max Gust Speed -    
Visibility 10 miles    
Events      
Averages and records for this station are not official NWS values.
T = Trace of Precipitation, MM = Missing Value Source: NWS Daily Summary

Daily Weather History Graph

Daily Weather History Graph

Search for Another Location

Airport or City:

Trip Planner

Search our weather history database for the weather conditions in past years. The results will help you decide how hot, cold, wet, or windy it might be!

Date:

Astronomy

Nov. 26, 2012 Rise Set
Actual Time 6:57 AM CST 4:21 PM CST
Civil Twilight 6:25 AM CST 4:52 PM CST
Nautical Twilight 5:50 AM CST 5:27 PM CST
Astronomical Twilight 5:17 AM CST 6:01 PM CST
Moon 3:14 PM CST (11/26) 5:05 AM CST (11/26)
Length of Visible Light 10h 26m
Length of Day
9h 24m
Waxing Gibbous, 97% of the Moon is Illuminated
Nov 26
Waxing Gibbous
Nov 28
Full
Dec 6
Last Quarter
Dec 13
New
Dec 19
First Quarter

Hourly Weather History & Observations

Time (CST) Temp. Windchill Dew Point Humidity Pressure Visibility Wind Dir Wind Speed Gust Speed Precip Events Conditions
12:53 AM 24.1 °F 14.4 °F 18.0 °F 77% 30.11 in 10.0 mi WNW 9.2 mph - N/A   Clear
1:53 AM 26.1 °F 18.4 °F 17.1 °F 69% 30.12 in 10.0 mi NW 6.9 mph - N/A   Clear
2:53 AM 24.1 °F 16.0 °F 15.1 °F 69% 30.15 in 10.0 mi WNW 6.9 mph - N/A   Clear
3:53 AM 24.1 °F 15.2 °F 14.0 °F 65% 30.17 in 10.0 mi WNW 8.1 mph - N/A   Clear
4:53 AM 23.0 °F 15.8 °F 14.0 °F 68% 30.19 in 10.0 mi NW 5.8 mph - N/A   Clear
5:53 AM 23.0 °F 18.4 °F 14.0 °F 68% 30.20 in 10.0 mi NW 3.5 mph - N/A   Clear
6:53 AM 23.0 °F - 14.0 °F 68% 30.22 in 10.0 mi Calm Calm - N/A   Clear
7:53 AM 24.1 °F 19.7 °F 16.0 °F 71% 30.25 in 10.0 mi WSW 3.5 mph - N/A   Overcast
8:53 AM 28.0 °F 24.2 °F 18.0 °F 66% 30.25 in 10.0 mi West 3.5 mph - N/A   Overcast
9:53 AM 30.9 °F 25.2 °F 17.1 °F 57% 30.27 in 10.0 mi West 5.8 mph - N/A   Mostly Cloudy
10:53 AM 32.0 °F 26.4 °F 17.1 °F 54% 30.27 in 10.0 mi NNW 5.8 mph - N/A   Overcast
11:53 AM 32.0 °F 24.2 °F 18.0 °F 56% 30.27 in 10.0 mi NNW 9.2 mph - N/A   Overcast
12:53 PM 32.0 °F 24.2 °F 19.0 °F 59% 30.28 in 10.0 mi NNW 9.2 mph - N/A   Overcast
1:02 PM 32.0 °F 25.6 °F 19.4 °F 60% 30.25 in 10.0 mi NW 6.9 mph - N/A   Overcast
1:10 PM 32.0 °F 24.8 °F 19.4 °F 60% 30.25 in 10.0 mi NNW 8.1 mph - N/A   Overcast
1:53 PM 33.1 °F 26.1 °F 19.0 °F 56% 30.28 in 10.0 mi NNW 8.1 mph - N/A   Overcast
2:53 PM 32.0 °F 24.8 °F 19.0 °F 59% 30.29 in 10.0 mi NW 8.1 mph - N/A   Overcast
3:53 PM 30.9 °F 22.8 °F 18.0 °F 59% 30.29 in 10.0 mi NNW 9.2 mph - N/A   Mostly Cloudy
4:53 PM 28.9 °F 21.9 °F 18.0 °F 64% 30.30 in 10.0 mi NNW 6.9 mph - N/A   Clear
5:53 PM 26.1 °F 20.5 °F 16.0 °F 66% 30.33 in 10.0 mi WNW 4.6 mph - N/A   Clear
6:53 PM 26.1 °F 19.4 °F 15.1 °F 63% 30.36 in 10.0 mi NW 5.8 mph - N/A   Clear
7:53 PM 24.1 °F 17.0 °F 12.0 °F 60% 30.38 in 10.0 mi NNW 5.8 mph - N/A   Clear
8:53 PM 23.0 °F 15.8 °F 10.0 °F 58% 30.38 in 10.0 mi NNW 5.8 mph - N/A   Clear
9:53 PM 21.0 °F 14.6 °F 9.0 °F 60% 30.39 in 10.0 mi NW 4.6 mph - N/A   Clear
10:53 PM 19.9 °F 13.4 °F 8.1 °F 60% 30.39 in 10.0 mi NW 4.6 mph - N/A   Clear
11:53 PM 19.0 °F 11.1 °F 8.1 °F 62% 30.39 in 10.0 mi NW 5.8 mph - N/A   Clear